Time,TemperatureF,DewpointF,PressureIn,WindDirection,WindDirectionDegrees,WindSpeedMPH,WindSpeedGustMPH,Humidity,HourlyPrecipIn,Conditions,Clouds,dailyrainin,SoftwareType,DateUTC
2013-03-25 00:00:00,16.5,4.3,30.42,NNE,15,4.0,6.0,58,0.00,,SKC,0.00,VWS V14.00,2013-03-25 06:00:00,
2013-03-25 00:06:00,16.2,4.0,30.42,NNE,32,0.0,1.0,58,0.00,,SKC,0.00,VWS V14.00,2013-03-25 06:06:00,
2013-03-25 00:11:00,15.9,4.1,30.43,ENE,67,1.0,4.0,59,0.00,,SKC,0.00,VWS V14.00,2013-03-25 06:11:00,
2013-03-25 00:16:00,15.7,3.9,30.42,ENE,74,1.0,4.0,59,0.00,,SKC,0.00,VWS V14.00,2013-03-25 06:16:00,
2013-03-25 00:22:00,15.3,4.3,30.42,ENE,74,0.0,4.0,61,0.00,,SKC,0.00,VWS V14.00,2013-03-25 06:22:00,
2013-03-25 00:27:00,15.2,4.2,30.42,ENE,74,2.0,4.0,61,0.00,,SKC,0.00,VWS V14.00,2013-03-25 06:27:00,
2013-03-25 00:30:00,15.1,3.7,30.42,ENE,74,2.0,4.0,60,0.00,,SKC,0.00,VWS V14.00,2013-03-25 06:30:00,
2013-03-25 00:32:00,15.1,3.7,30.42,ENE,74,2.0,4.0,60,0.00,,SKC,0.00,VWS V14.00,2013-03-25 06:32:00,
2013-03-25 00:37:00,14.9,3.9,30.43,ENE,74,2.0,3.0,61,0.00,,SKC,0.00,VWS V14.00,2013-03-25 06:37:00,
2013-03-25 00:42:00,14.9,3.2,30.42,NE,45,4.0,4.0,59,0.00,,SKC,0.00,VWS V14.00,2013-03-25 06:42:00,
2013-03-25 00:48:00,15.0,2.9,30.42,NE,46,2.0,4.0,58,0.00,,SKC,0.00,VWS V14.00,2013-03-25 06:48:00,
2013-03-25 00:53:00,15.2,2.7,30.42,NE,40,2.0,6.0,57,0.00,,SKC,0.00,VWS V14.00,2013-03-25 06:53:00,
2013-03-25 00:58:00,15.0,3.3,30.42,NE,50,1.0,6.0,59,0.00,,SKC,0.00,VWS V14.00,2013-03-25 06:58:00,
2013-03-25 01:00:00,14.8,3.1,30.42,NE,42,2.0,6.0,59,0.00,,SKC,0.00,VWS V14.00,2013-03-25 07:00:00,
2013-03-25 01:03:00,14.8,2.7,30.42,NE,50,1.0,3.0,58,0.00,,SKC,0.00,VWS V14.00,2013-03-25 07:03:00,
2013-03-25 01:09:00,14.8,3.4,30.42,NE,37,0.0,4.0,60,0.00,,SKC,0.00,VWS V14.00,2013-03-25 07:09:00,
2013-03-25 01:14:00,14.6,2.9,30.42,NE,36,0.0,5.0,59,0.00,,SKC,0.00,VWS V14.00,2013-03-25 07:14:00,
2013-03-25 01:19:00,14.5,2.4,30.42,NE,36,3.0,5.0,58,0.00,,SKC,0.00,VWS V14.00,2013-03-25 07:19:00,
2013-03-25 01:25:00,14.6,2.5,30.42,NE,44,1.0,5.0,58,0.00,,SKC,0.00,VWS V14.00,2013-03-25 07:25:00,
2013-03-25 01:30:00,14.7,2.2,30.42,NNE,15,0.0,5.0,57,0.00,,SKC,0.00,VWS V14.00,2013-03-25 07:30:00,
2013-03-25 01:35:00,14.8,2.3,30.42,NE,34,4.0,4.0,57,0.00,,SKC,0.00,VWS V14.00,2013-03-25 07:35:00,
2013-03-25 01:40:00,14.8,2.0,30.43,NE,53,0.0,5.0,56,0.00,,SKC,0.00,VWS V14.00,2013-03-25 07:40:00,
2013-03-25 01:46:00,14.7,2.2,30.42,NE,36,2.0,5.0,57,0.00,,SKC,0.00,VWS V14.00,2013-03-25 07:46:00,
2013-03-25 01:52:00,14.6,2.5,30.43,NE,55,5.0,6.0,58,0.00,,SKC,0.00,VWS V14.00,2013-03-25 07:52:00,
2013-03-25 01:57:00,14.4,2.0,30.43,NNE,22,1.0,6.0,57,0.00,,SKC,0.00,VWS V14.00,2013-03-25 07:57:00,
2013-03-25 02:00:00,14.4,2.3,30.43,ESE,105,1.0,6.0,58,0.00,,SKC,0.00,VWS V14.00,2013-03-25 08:00:00,
2013-03-25 02:02:00,14.4,2.3,30.43,ESE,111,2.0,6.0,58,0.00,,SKC,0.00,VWS V14.00,2013-03-25 08:02:00,
2013-03-25 02:07:00,14.3,1.9,30.43,NE,46,1.0,5.0,57,0.00,,SKC,0.00,VWS V14.00,2013-03-25 08:07:00,
2013-03-25 02:12:00,14.3,1.9,30.43,North,360,0.0,5.0,57,0.00,,SKC,0.00,VWS V14.00,2013-03-25 08:12:00,
2013-03-25 02:18:00,14.3,1.9,30.43,NNE,32,3.0,5.0,57,0.00,,SKC,0.00,VWS V14.00,2013-03-25 08:18:00,
2013-03-25 02:23:00,14.3,1.9,30.43,NNE,26,1.0,5.0,57,0.00,,SKC,0.00,VWS V14.00,2013-03-25 08:23:00,
2013-03-25 02:29:00,14.3,1.9,30.43,NE,53,1.0,6.0,57,0.00,,SKC,0.00,VWS V14.00,2013-03-25 08:29:00,
2013-03-25 02:30:00,14.1,2.0,30.43,ENE,58,1.0,6.0,58,0.00,,SKC,0.00,VWS V14.00,2013-03-25 08:30:00,
2013-03-25 02:34:00,14.0,2.0,30.43,NNE,28,2.0,2.0,58,0.00,,SKC,0.00,VWS V14.00,2013-03-25 08:34:00,
2013-03-25 02:39:00,13.8,2.1,30.43,NE,34,2.0,4.0,59,0.00,,SKC,0.00,VWS V14.00,2013-03-25 08:39:00,
2013-03-25 02:45:00,13.7,2.0,30.43,ESE,121,1.0,6.0,59,0.00,,SKC,0.00,VWS V14.00,2013-03-25 08:45:00,
2013-03-25 02:50:00,13.7,2.0,30.43,NE,49,3.0,6.0,59,0.00,,SKC,0.00,VWS V14.00,2013-03-25 08:50:00,
2013-03-25 02:55:00,13.8,1.4,30.43,NE,34,2.0,6.0,57,0.00,,SKC,0.00,VWS V14.00,2013-03-25 08:55:00,
2013-03-25 03:00:00,13.5,1.9,30.43,NE,54,1.0,6.0,59,0.00,,SKC,0.00,VWS V14.00,2013-03-25 09:00:00,
2013-03-25 03:01:00,13.5,1.9,30.44,NNE,19,3.0,6.0,59,0.00,,SKC,0.00,VWS V14.00,2013-03-25 09:01:00,
2013-03-25 03:06:00,13.5,1.9,30.43,NE,40,1.0,6.0,59,0.00,,SKC,0.00,VWS V14.00,2013-03-25 09:06:00,
2013-03-25 03:12:00,13.3,2.0,30.43,ENE,61,0.0,6.0,60,0.00,,SKC,0.00,VWS V14.00,2013-03-25 09:12:00,
2013-03-25 03:17:00,13.1,2.2,30.43,East,90,0.0,6.0,61,0.00,,SKC,0.00,VWS V14.00,2013-03-25 09:17:00,
2013-03-25 03:22:00,12.8,2.2,30.43,NE,40,0.0,6.0,62,0.00,,SKC,0.00,VWS V14.00,2013-03-25 09:22:00,
2013-03-25 03:27:00,12.8,2.6,30.43,NNE,33,1.0,6.0,63,0.00,,SKC,0.00,VWS V14.00,2013-03-25 09:27:00,
2013-03-25 03:30:00,12.5,2.3,30.43,ENE,66,3.0,6.0,63,0.00,,SKC,0.00,VWS V14.00,2013-03-25 09:30:00,
2013-03-25 03:33:00,12.5,2.3,30.43,ENE,58,4.0,4.0,63,0.00,,SKC,0.00,VWS V14.00,2013-03-25 09:33:00,
2013-03-25 03:38:00,12.5,2.3,30.43,East,86,4.0,4.0,63,0.00,,SKC,0.00,VWS V14.00,2013-03-25 09:38:00,
2013-03-25 03:43:00,12.3,1.8,30.43,East,86,0.0,4.0,62,0.00,,SKC,0.00,VWS V14.00,2013-03-25 09:43:00,
2013-03-25 03:49:00,12.2,2.0,30.43,NE,51,2.0,4.0,63,0.00,,SKC,0.00,VWS V14.00,2013-03-25 09:49:00,
2013-03-25 03:54:00,12.4,1.9,30.43,ENE,67,1.0,4.0,62,0.00,,SKC,0.00,VWS V14.00,2013-03-25 09:54:00,
2013-03-25 03:59:00,12.3,2.5,30.43,ENE,68,0.0,4.0,64,0.00,,SKC,0.00,VWS V14.00,2013-03-25 09:59:00,
2013-03-25 04:00:00,12.1,2.3,30.43,ENE,67,0.0,4.0,64,0.00,,SKC,0.00,VWS V14.00,2013-03-25 10:00:00,
2013-03-25 04:05:00,12.1,1.9,30.43,ENE,67,3.0,4.0,63,0.00,,SKC,0.00,VWS V14.00,2013-03-25 10:05:00,
2013-03-25 04:10:00,12.2,2.4,30.43,ENE,66,0.0,4.0,64,0.00,,SKC,0.00,VWS V14.00,2013-03-25 10:10:00,
2013-03-25 04:15:00,12.2,2.0,30.43,ENE,66,2.0,4.0,63,0.00,,SKC,0.00,VWS V14.00,2013-03-25 10:15:00,
2013-03-25 04:20:00,12.2,2.7,30.43,ENE,66,0.0,4.0,65,0.00,,SKC,0.00,VWS V14.00,2013-03-25 10:20:00,
2013-03-25 04:26:00,12.1,2.3,30.43,East,91,0.0,5.0,64,0.00,,SKC,0.00,VWS V14.00,2013-03-25 10:26:00,
2013-03-25 04:30:00,12.0,2.5,30.43,ENE,57,3.0,5.0,65,0.00,,SKC,0.00,VWS V14.00,2013-03-25 10:30:00,
2013-03-25 04:31:00,12.0,2.5,30.43,East,91,1.0,5.0,65,0.00,,SKC,0.00,VWS V14.00,2013-03-25 10:31:00,
2013-03-25 04:36:00,11.9,2.1,30.43,ENE,64,1.0,3.0,64,0.00,,SKC,0.00,VWS V14.00,2013-03-25 10:36:00,
2013-03-25 04:42:00,12.0,2.2,30.43,ENE,64,0.0,3.0,64,0.00,,SKC,0.00,VWS V14.00,2013-03-25 10:42:00,
2013-03-25 04:47:00,11.9,2.4,30.43,ENE,65,0.0,3.0,65,0.00,,SKC,0.00,VWS V14.00,2013-03-25 10:47:00,
2013-03-25 04:52:00,11.6,2.5,30.44,ENE,65,0.0,3.0,66,0.00,,SKC,0.00,VWS V14.00,2013-03-25 10:52:00,
2013-03-25 04:57:00,11.4,2.3,30.44,ENE,65,0.0,3.0,66,0.00,,SKC,0.00,VWS V14.00,2013-03-25 10:57:00,
2013-03-25 05:00:00,11.2,2.4,30.44,ENE,65,0.0,3.0,67,0.00,,SKC,0.00,VWS V14.00,2013-03-25 11:00:00,
2013-03-25 05:02:00,11.2,2.4,30.44,ENE,65,0.0,0.0,67,0.00,,SKC,0.00,VWS V14.00,2013-03-25 11:02:00,
2013-03-25 05:08:00,10.9,2.4,30.44,ENE,65,0.0,0.0,68,0.00,,SKC,0.00,VWS V14.00,2013-03-25 11:08:00,
2013-03-25 05:13:00,10.5,2.0,30.44,ENE,65,0.0,1.0,68,0.00,,SKC,0.00,VWS V14.00,2013-03-25 11:13:00,
2013-03-25 05:18:00,10.4,2.3,30.43,ENE,65,0.0,3.0,69,0.00,,SKC,0.00,VWS V14.00,2013-03-25 11:18:00,
2013-03-25 05:24:00,10.5,2.0,30.43,ENE,65,1.0,3.0,68,0.00,,SKC,0.00,VWS V14.00,2013-03-25 11:24:00,
2013-03-25 05:29:00,10.5,2.0,30.43,ENE,65,0.0,3.0,68,0.00,,SKC,0.00,VWS V14.00,2013-03-25 11:29:00,
2013-03-25 05:30:00,10.5,2.4,30.44,ENE,65,0.0,3.0,69,0.00,,SKC,0.00,VWS V14.00,2013-03-25 11:30:00,
2013-03-25 05:34:00,10.4,2.6,30.44,ENE,65,0.0,0.0,70,0.00,,SKC,0.00,VWS V14.00,2013-03-25 11:34:00,
2013-03-25 05:40:00,10.2,2.4,30.44,ENE,65,0.0,0.0,70,0.00,,SKC,0.00,VWS V14.00,2013-03-25 11:40:00,
2013-03-25 05:45:00,9.9,2.4,30.45,ENE,65,0.0,0.0,71,0.00,,SKC,0.00,VWS V14.00,2013-03-25 11:45:00,
2013-03-25 05:50:00,9.7,2.2,30.45,ENE,65,0.0,0.0,71,0.00,,SKC,0.00,VWS V14.00,2013-03-25 11:50:00,
2013-03-25 05:56:00,9.6,2.1,30.45,ENE,65,0.0,1.0,71,0.00,,SKC,0.00,VWS V14.00,2013-03-25 11:56:00,
2013-03-25 06:00:00,9.7,2.2,30.46,ENE,65,0.0,3.0,71,0.00,,SKC,0.00,VWS V14.00,2013-03-25 12:00:00,
2013-03-25 06:01:00,9.6,2.1,30.45,ENE,65,0.0,3.0,71,0.00,,SKC,0.00,VWS V14.00,2013-03-25 12:01:00,
2013-03-25 06:07:00,9.6,2.4,30.45,ENE,65,0.0,0.0,72,0.00,,SKC,0.00,VWS V14.00,2013-03-25 12:07:00,
2013-03-25 06:13:00,9.5,2.0,30.46,ENE,65,1.0,1.0,71,0.00,,SKC,0.00,VWS V14.00,2013-03-25 12:13:00,
2013-03-25 06:18:00,9.6,2.1,30.45,ENE,65,0.0,2.0,71,0.00,,SKC,0.00,VWS V14.00,2013-03-25 12:18:00,
2013-03-25 06:24:00,9.5,2.0,30.46,ENE,61,2.0,3.0,71,0.00,,SKC,0.00,VWS V14.00,2013-03-25 12:24:00,
2013-03-25 06:29:00,9.2,2.3,30.46,ENE,61,0.0,3.0,73,0.00,,SKC,0.00,VWS V14.00,2013-03-25 12:29:00,
2013-03-25 06:30:00,9.1,2.2,30.46,ENE,61,0.0,3.0,73,0.00,,SKC,0.00,VWS V14.00,2013-03-25 12:30:00,
2013-03-25 06:34:00,9.0,2.4,30.46,ENE,61,0.0,0.0,74,0.00,,SKC,0.00,VWS V14.00,2013-03-25 12:34:00,
2013-03-25 06:40:00,8.8,2.5,30.46,ENE,61,0.0,0.0,75,0.00,,SKC,0.00,VWS V14.00,2013-03-25 12:40:00,
2013-03-25 06:45:00,8.7,2.4,30.47,ENE,61,0.0,2.0,75,0.00,,SKC,0.00,VWS V14.00,2013-03-25 12:45:00,
2013-03-25 06:50:00,8.7,2.1,30.47,ENE,61,2.0,2.0,74,0.00,,SKC,0.00,VWS V14.00,2013-03-25 12:50:00,
2013-03-25 06:56:00,8.6,2.0,30.47,ENE,61,0.0,2.0,74,0.00,,SKC,0.00,VWS V14.00,2013-03-25 12:56:00,
2013-03-25 07:00:00,8.6,2.3,30.47,ENE,61,0.0,2.0,75,0.00,,SKC,0.00,VWS V14.00,2013-03-25 13:00:00,
2013-03-25 07:01:00,8.6,2.3,30.47,ENE,61,0.0,2.0,75,0.00,,SKC,0.00,VWS V14.00,2013-03-25 13:01:00,
2013-03-25 07:06:00,8.5,2.2,30.47,ENE,61,0.0,1.0,75,0.00,,SKC,0.00,VWS V14.00,2013-03-25 13:06:00,
2013-03-25 07:12:00,8.6,2.3,30.48,ENE,61,0.0,1.0,75,0.00,,SKC,0.00,VWS V14.00,2013-03-25 13:12:00,
2013-03-25 07:17:00,8.5,2.2,30.48,ENE,61,1.0,2.0,75,0.00,,SKC,0.00,VWS V14.00,2013-03-25 13:17:00,
2013-03-25 07:22:00,8.5,2.2,30.48,ENE,61,1.0,2.0,75,0.00,,SKC,0.00,VWS V14.00,2013-03-25 13:22:00,
2013-03-25 07:28:00,8.5,2.2,30.48,ENE,61,0.0,2.0,75,0.00,,SKC,0.00,VWS V14.00,2013-03-25 13:28:00,
2013-03-25 07:30:00,8.5,2.5,30.48,ENE,61,0.0,2.0,76,0.00,,SKC,0.00,VWS V14.00,2013-03-25 13:30:00,
2013-03-25 07:33:00,8.4,2.4,30.48,ENE,61,0.0,0.0,76,0.00,,SKC,0.00,VWS V14.00,2013-03-25 13:33:00,
2013-03-25 07:38:00,8.4,2.4,30.48,ENE,61,0.0,1.0,76,0.00,,SKC,0.00,VWS V14.00,2013-03-25 13:38:00,
2013-03-25 07:44:00,8.4,2.7,30.49,ENE,61,1.0,2.0,77,0.00,,SKC,0.00,VWS V14.00,2013-03-25 13:44:00,
2013-03-25 07:49:00,8.6,2.6,30.49,ENE,61,0.0,2.0,76,0.00,,SKC,0.00,VWS V14.00,2013-03-25 13:49:00,
2013-03-25 07:54:00,8.7,3.0,30.49,ENE,61,0.0,2.0,77,0.00,,SKC,0.00,VWS V14.00,2013-03-25 13:54:00,
2013-03-25 07:59:00,8.7,3.0,30.49,ENE,61,0.0,2.0,77,0.00,,SKC,0.00,VWS V14.00,2013-03-25 13:59:00,
2013-03-25 08:00:00,8.8,2.8,30.49,ENE,61,0.0,2.0,76,0.00,,SKC,0.00,VWS V14.00,2013-03-25 14:00:00,
2013-03-25 08:05:00,8.9,2.9,30.49,ENE,61,0.0,1.0,76,0.00,,SKC,0.00,VWS V14.00,2013-03-25 14:05:00,
2013-03-25 08:10:00,8.9,2.9,30.49,ENE,61,0.0,1.0,76,0.00,,SKC,0.00,VWS V14.00,2013-03-25 14:10:00,
2013-03-25 08:15:00,8.9,2.9,30.49,ENE,61,0.0,1.0,76,0.00,,SKC,0.00,VWS V14.00,2013-03-25 14:15:00,
2013-03-25 08:20:00,9.1,3.1,30.49,ENE,61,0.0,1.0,76,0.00,,SKC,0.00,VWS V14.00,2013-03-25 14:20:00,
2013-03-25 08:26:00,9.3,3.3,30.50,ENE,61,0.0,1.0,76,0.00,,SKC,0.00,VWS V14.00,2013-03-25 14:26:00,
2013-03-25 08:30:00,9.7,4.0,30.50,ENE,61,0.0,1.0,77,0.00,,SKC,0.00,VWS V14.00,2013-03-25 14:30:00,
2013-03-25 08:31:00,9.7,4.0,30.50,ENE,61,0.0,1.0,77,0.00,,SKC,0.00,VWS V14.00,2013-03-25 14:31:00,
2013-03-25 08:36:00,9.9,4.2,30.50,ENE,61,0.0,0.0,77,0.00,,SKC,0.00,VWS V14.00,2013-03-25 14:36:00,
2013-03-25 08:42:00,10.1,4.1,30.50,ENE,61,0.0,1.0,76,0.00,,SKC,0.00,VWS V14.00,2013-03-25 14:42:00,
2013-03-25 08:47:00,10.5,3.9,30.50,ENE,61,0.0,1.0,74,0.00,,SKC,0.00,VWS V14.00,2013-03-25 14:47:00,
2013-03-25 08:52:00,10.9,4.2,30.50,ENE,61,0.0,1.0,74,0.00,,SKC,0.00,VWS V14.00,2013-03-25 14:52:00,
2013-03-25 08:58:00,11.5,4.2,30.51,ENE,61,0.0,1.0,72,0.00,,SKC,0.00,VWS V14.00,2013-03-25 14:58:00,
2013-03-25 09:00:00,11.9,3.7,30.51,ENE,61,1.0,2.0,69,0.00,,SKC,0.00,VWS V14.00,2013-03-25 15:00:00,
2013-03-25 09:03:00,12.1,3.6,30.51,ENE,61,1.0,1.0,68,0.00,,SKC,0.00,VWS V14.00,2013-03-25 15:03:00,
2013-03-25 09:08:00,12.7,3.5,30.51,ENE,61,0.0,1.0,66,0.00,,SKC,0.00,VWS V14.00,2013-03-25 15:08:00,
2013-03-25 09:14:00,13.3,3.4,30.51,ENE,61,0.0,1.0,64,0.00,,SKC,0.00,VWS V14.00,2013-03-25 15:14:00,
2013-03-25 09:19:00,13.9,3.0,30.51,ENE,74,1.0,2.0,61,0.00,,SKC,0.00,VWS V14.00,2013-03-25 15:19:00,
2013-03-25 09:24:00,14.4,3.1,30.51,ENE,74,1.0,2.0,60,0.00,,SKC,0.00,VWS V14.00,2013-03-25 15:24:00,
2013-03-25 09:30:00,14.9,3.2,30.51,East,85,2.0,2.0,59,0.00,,SKC,0.00,VWS V14.00,2013-03-25 15:30:00,
2013-03-25 09:35:00,15.6,3.5,30.51,East,88,0.0,1.0,58,0.00,,SKC,0.00,VWS V14.00,2013-03-25 15:35:00,
2013-03-25 09:40:00,16.5,3.9,30.51,SSE,159,0.0,5.0,57,0.00,,SKC,0.00,VWS V14.00,2013-03-25 15:40:00,
2013-03-25 09:46:00,17.4,4.0,30.51,SSE,159,0.0,5.0,55,0.00,,SKC,0.00,VWS V14.00,2013-03-25 15:46:00,
2013-03-25 09:51:00,18.2,4.8,30.51,SSE,159,1.0,5.0,55,0.00,,SKC,0.00,VWS V14.00,2013-03-25 15:51:00,
2013-03-25 09:56:00,19.0,5.1,30.51,SSE,159,1.0,5.0,54,0.00,,SKC,0.00,VWS V14.00,2013-03-25 15:56:00,
2013-03-25 10:00:00,19.8,5.9,30.50,SE,136,0.0,5.0,54,0.00,,SKC,0.00,VWS V14.00,2013-03-25 16:00:00,
2013-03-25 10:02:00,19.7,5.8,30.50,SE,136,0.0,5.0,54,0.00,,SKC,0.00,VWS V14.00,2013-03-25 16:02:00,
2013-03-25 10:07:00,20.5,6.1,30.50,SE,136,1.0,4.0,53,0.00,,SKC,0.00,VWS V14.00,2013-03-25 16:07:00,
2013-03-25 10:13:00,21.1,6.2,30.50,SSE,151,0.0,4.0,52,0.00,,SKC,0.00,VWS V14.00,2013-03-25 16:13:00,
2013-03-25 10:18:00,21.8,8.1,30.50,SSE,151,0.0,4.0,55,0.00,,SKC,0.00,VWS V14.00,2013-03-25 16:18:00,
2013-03-25 10:23:00,22.4,7.0,30.50,SW,218,3.0,4.0,51,0.00,,SKC,0.00,VWS V14.00,2013-03-25 16:23:00,
2013-03-25 10:28:00,23.1,8.9,30.50,SW,216,1.0,5.0,54,0.00,,SKC,0.00,VWS V14.00,2013-03-25 16:28:00,
2013-03-25 10:30:00,23.6,7.7,30.50,South,184,0.0,5.0,50,0.00,,SKC,0.00,VWS V14.00,2013-03-25 16:30:00,
2013-03-25 10:33:00,23.8,7.0,30.50,SW,216,1.0,4.0,48,0.00,,SKC,0.00,VWS V14.00,2013-03-25 16:33:00,
2013-03-25 10:39:00,24.0,6.7,30.50,SSW,211,0.0,4.0,47,0.00,,SKC,0.00,VWS V14.00,2013-03-25 16:39:00,
2013-03-25 10:44:00,24.2,6.4,30.49,SSW,211,0.0,4.0,46,0.00,,SKC,0.00,VWS V14.00,2013-03-25 16:44:00,
2013-03-25 10:49:00,24.6,7.3,30.49,SSW,211,2.0,4.0,47,0.00,,SKC,0.00,VWS V14.00,2013-03-25 16:49:00,
2013-03-25 10:54:00,25.1,7.7,30.49,SSW,207,2.0,4.0,47,0.00,,SKC,0.00,VWS V14.00,2013-03-25 16:54:00,
2013-03-25 10:59:00,25.8,7.9,30.49,SSW,208,0.0,5.0,46,0.00,,SKC,0.00,VWS V14.00,2013-03-25 16:59:00,
2013-03-25 11:00:00,26.1,8.2,30.49,SSW,205,3.0,6.0,46,0.00,,SKC,0.00,VWS V14.00,2013-03-25 17:00:00,
2013-03-25 11:05:00,26.3,7.9,30.49,SSW,212,2.0,5.0,45,0.00,,SKC,0.00,VWS V14.00,2013-03-25 17:05:00,
2013-03-25 11:10:00,26.6,7.6,30.49,WSW,245,2.0,5.0,44,0.00,,SKC,0.00,VWS V14.00,2013-03-25 17:10:00,
2013-03-25 11:15:00,27.1,6.5,30.49,SW,225,3.0,6.0,41,0.00,,SKC,0.00,VWS V14.00,2013-03-25 17:15:00,
2013-03-25 11:21:00,27.1,6.5,30.48,SW,217,3.0,6.0,41,0.00,,SKC,0.00,VWS V14.00,2013-03-25 17:21:00,
2013-03-25 11:26:00,27.5,6.9,30.49,SW,217,2.0,6.0,41,0.00,,SKC,0.00,VWS V14.00,2013-03-25 17:26:00,
2013-03-25 11:30:00,28.0,6.8,30.48,SW,233,0.0,6.0,40,0.00,,SKC,0.00,VWS V14.00,2013-03-25 17:30:00,
2013-03-25 11:32:00,28.0,6.3,30.48,SW,233,1.0,6.0,39,0.00,,SKC,0.00,VWS V14.00,2013-03-25 17:32:00,
2013-03-25 11:37:00,28.4,5.5,30.48,WSW,237,0.0,7.0,37,0.00,,SKC,0.00,VWS V14.00,2013-03-25 17:37:00,
2013-03-25 11:42:00,28.5,5.0,30.48,SSW,205,1.0,7.0,36,0.00,,SKC,0.00,VWS V14.00,2013-03-25 17:42:00,
2013-03-25 11:48:00,28.8,5.2,30.48,WSW,237,2.0,7.0,36,0.00,,SKC,0.00,VWS V14.00,2013-03-25 17:48:00,
2013-03-25 11:53:00,29.1,4.9,30.47,SSW,209,0.0,7.0,35,0.00,,SKC,0.00,VWS V14.00,2013-03-25 17:53:00,
2013-03-25 11:58:00,29.3,5.7,30.47,SSW,210,2.0,7.0,36,0.00,,SKC,0.00,VWS V14.00,2013-03-25 17:58:00,
2013-03-25 12:00:00,29.3,5.1,30.47,SW,223,3.0,7.0,35,0.00,,SKC,0.00,VWS V14.00,2013-03-25 18:00:00,
2013-03-25 12:04:00,29.3,5.7,30.46,SSW,211,2.0,4.0,36,0.00,,SKC,0.00,VWS V14.00,2013-03-25 18:04:00,
2013-03-25 12:09:00,29.6,5.3,30.46,SSW,211,0.0,4.0,35,0.00,,SKC,0.00,VWS V14.00,2013-03-25 18:09:00,
2013-03-25 12:14:00,30.3,5.3,30.46,West,263,0.0,7.0,34,0.00,,SKC,0.00,VWS V14.00,2013-03-25 18:14:00,
2013-03-25 12:19:00,30.4,6.0,30.46,SW,216,5.0,12.0,35,0.00,,SKC,0.00,VWS V14.00,2013-03-25 18:19:00,
2013-03-25 12:25:00,30.6,5.6,30.46,South,184,4.0,12.0,34,0.00,,SKC,0.00,VWS V14.00,2013-03-25 18:25:00,
2013-03-25 12:30:00,30.6,5.6,30.45,SSE,167,2.0,12.0,34,0.00,,SKC,0.00,VWS V14.00,2013-03-25 18:30:00,
2013-03-25 12:35:00,30.9,6.5,30.45,SSE,161,6.0,8.0,35,0.00,,SKC,0.00,VWS V14.00,2013-03-25 18:35:00,
2013-03-25 12:41:00,31.5,5.7,30.45,SW,222,0.0,9.0,33,0.00,,SKC,0.00,VWS V14.00,2013-03-25 18:41:00,
2013-03-25 12:46:00,32.0,6.8,30.45,SW,224,5.0,9.0,34,0.00,,SKC,0.00,VWS V14.00,2013-03-25 18:46:00,
2013-03-25 12:52:00,32.0,6.8,30.45,SSW,208,4.0,9.0,34,0.00,,SKC,0.00,VWS V14.00,2013-03-25 18:52:00,
2013-03-25 12:58:00,32.1,5.6,30.45,SSW,193,0.0,9.0,32,0.00,,SKC,0.00,VWS V14.00,2013-03-25 18:58:00,
2013-03-25 13:00:00,32.3,6.4,30.44,SW,233,3.0,9.0,33,0.00,,SKC,0.00,VWS V14.00,2013-03-25 19:00:00,
2013-03-25 13:03:00,32.4,7.2,30.45,WSW,257,4.0,7.0,34,0.00,,SKC,0.00,VWS V14.00,2013-03-25 19:03:00,
2013-03-25 13:08:00,32.7,6.8,30.44,WSW,257,3.0,10.0,33,0.00,,SKC,0.00,VWS V14.00,2013-03-25 19:08:00,
2013-03-25 13:13:00,32.8,6.9,30.44,SW,235,4.0,10.0,33,0.00,,SKC,0.00,VWS V14.00,2013-03-25 19:13:00,
2013-03-25 13:19:00,33.2,7.2,30.44,SSW,208,3.0,10.0,33,0.00,,SKC,0.00,VWS V14.00,2013-03-25 19:19:00,
2013-03-25 13:24:00,33.0,5.7,30.44,SSW,211,4.0,10.0,31,0.00,,SKC,0.00,VWS V14.00,2013-03-25 19:24:00,
2013-03-25 13:29:00,32.8,6.2,30.43,South,182,0.0,10.0,32,0.00,,SKC,0.00,VWS V14.00,2013-03-25 19:29:00,
2013-03-25 13:30:00,33.2,5.9,30.43,SW,231,4.0,10.0,31,0.00,,SKC,0.00,VWS V14.00,2013-03-25 19:30:00,
2013-03-25 13:34:00,33.4,6.0,30.43,SW,221,3.0,6.0,31,0.00,,SKC,0.00,VWS V14.00,2013-03-25 19:34:00,
2013-03-25 13:39:00,33.7,5.6,30.43,WSW,258,1.0,6.0,30,0.00,,SKC,0.00,VWS V14.00,2013-03-25 19:39:00,
2013-03-25 13:44:00,34.0,5.8,30.42,NE,49,0.0,6.0,30,0.00,,SKC,0.00,VWS V14.00,2013-03-25 19:44:00,
2013-03-25 13:49:00,34.1,5.2,30.42,SW,214,0.0,8.0,29,0.00,,SKC,0.00,VWS V14.00,2013-03-25 19:49:00,
2013-03-25 13:54:00,34.2,6.0,30.42,SW,234,0.0,8.0,30,0.00,,SKC,0.00,VWS V14.00,2013-03-25 19:54:00,
2013-03-25 14:00:00,34.5,5.5,30.42,SSW,212,1.0,8.0,29,0.00,,SKC,0.00,VWS V14.00,2013-03-25 20:00:00,
2013-03-25 14:05:00,35.0,6.7,30.41,SW,233,3.0,4.0,30,0.00,,SKC,0.00,VWS V14.00,2013-03-25 20:05:00,
2013-03-25 14:10:00,35.3,5.5,30.41,SSE,162,0.0,10.0,28,0.00,,SKC,0.00,VWS V14.00,2013-03-25 20:10:00,
2013-03-25 14:15:00,35.7,5.8,30.41,South,169,2.0,10.0,28,0.00,,SKC,0.00,VWS V14.00,2013-03-25 20:15:00,
2013-03-25 14:21:00,35.5,5.6,30.41,SSW,211,1.0,10.0,28,0.00,,SKC,0.00,VWS V14.00,2013-03-25 20:21:00,
2013-03-25 14:26:00,36.0,6.8,30.40,West,273,2.0,10.0,29,0.00,,SKC,0.00,VWS V14.00,2013-03-25 20:26:00,
2013-03-25 14:30:00,36.4,4.8,30.40,SSW,192,4.0,10.0,26,0.00,,SKC,0.00,VWS V14.00,2013-03-25 20:30:00,
2013-03-25 14:31:00,36.4,4.8,30.40,South,182,3.0,10.0,26,0.00,,SKC,0.00,VWS V14.00,2013-03-25 20:31:00,
2013-03-25 14:37:00,36.5,4.9,30.40,SSE,165,1.0,7.0,26,0.00,,SKC,0.00,VWS V14.00,2013-03-25 20:37:00,
2013-03-25 14:42:00,36.5,4.9,30.39,NW,325,2.0,7.0,26,0.00,,SKC,0.00,VWS V14.00,2013-03-25 20:42:00,
2013-03-25 14:47:00,36.8,5.1,30.39,SW,217,4.0,7.0,26,0.00,,SKC,0.00,VWS V14.00,2013-03-25 20:47:00,
2013-03-25 14:53:00,37.0,3.6,30.38,SE,138,4.0,8.0,24,0.00,,SKC,0.00,VWS V14.00,2013-03-25 20:53:00,
2013-03-25 14:58:00,36.8,4.3,30.38,SW,219,2.0,8.0,25,0.00,,SKC,0.00,VWS V14.00,2013-03-25 20:58:00,
2013-03-25 15:00:00,37.4,4.8,30.39,SW,235,5.0,8.0,25,0.00,,SKC,0.00,VWS V14.00,2013-03-25 21:00:00,
2013-03-25 15:03:00,37.5,4.0,30.38,South,176,6.0,6.0,24,0.00,,SKC,0.00,VWS V14.00,2013-03-25 21:03:00,
2013-03-25 15:08:00,37.5,3.1,30.38,SW,221,3.0,7.0,23,0.00,,SKC,0.00,VWS V14.00,2013-03-25 21:08:00,
2013-03-25 15:14:00,37.4,0.0,30.38,SW,232,0.0,7.0,20,0.00,,SKC,0.00,VWS V14.00,2013-03-25 21:14:00,
2013-03-25 15:19:00,37.9,1.5,30.38,SW,234,0.0,7.0,21,0.00,,SKC,0.00,VWS V14.00,2013-03-25 21:19:00,
2013-03-25 15:24:00,38.2,1.7,30.37,SW,236,1.0,7.0,21,0.00,,SKC,0.00,VWS V14.00,2013-03-25 21:24:00,
2013-03-25 15:30:00,38.4,3.8,30.37,WSW,237,1.0,7.0,23,0.00,,SKC,0.00,VWS V14.00,2013-03-25 21:30:00,
2013-03-25 15:35:00,38.9,1.3,30.37,SW,223,1.0,5.0,20,0.00,,SKC,0.00,VWS V14.00,2013-03-25 21:35:00,
2013-03-25 15:40:00,39.3,3.7,30.36,SW,216,3.0,5.0,22,0.00,,SKC,0.00,VWS V14.00,2013-03-25 21:40:00,
2013-03-25 15:46:00,39.2,1.5,30.37,SW,233,2.0,9.0,20,0.00,,SKC,0.00,VWS V14.00,2013-03-25 21:46:00,
2013-03-25 15:52:00,39.3,1.6,30.37,NNW,342,0.0,9.0,20,0.00,,SKC,0.00,VWS V14.00,2013-03-25 21:52:00,
2013-03-25 15:57:00,39.6,3.9,30.37,SW,219,3.0,9.0,22,0.00,,SKC,0.00,VWS V14.00,2013-03-25 21:57:00,
2013-03-25 16:00:00,39.8,3.1,30.36,SW,222,1.0,9.0,21,0.00,,SKC,0.00,VWS V14.00,2013-03-25 22:00:00,
2013-03-25 16:02:00,39.8,3.1,30.36,SW,222,1.0,9.0,21,0.00,,SKC,0.00,VWS V14.00,2013-03-25 22:02:00,
2013-03-25 16:07:00,40.7,4.8,30.36,SW,222,1.0,2.0,22,0.00,,SKC,0.00,VWS V14.00,2013-03-25 22:07:00,
2013-03-25 16:13:00,41.3,3.3,30.36,SW,232,0.0,3.0,20,0.00,,SKC,0.00,VWS V14.00,2013-03-25 22:13:00,
2013-03-25 16:18:00,41.2,3.2,30.36,SSE,163,0.0,8.0,20,0.00,,SKC,0.01,VWS V14.00,2013-03-25 22:18:00,
2013-03-25 16:23:00,41.4,3.3,30.35,SSW,194,1.0,8.0,20,0.00,,SKC,0.01,VWS V14.00,2013-03-25 22:23:00,
2013-03-25 16:28:00,41.3,2.2,30.35,SSW,209,0.0,8.0,19,0.00,,SKC,0.01,VWS V14.00,2013-03-25 22:28:00,
2013-03-25 16:30:00,41.3,4.3,30.35,SSW,209,0.0,8.0,21,0.00,,SKC,0.01,VWS V14.00,2013-03-25 22:30:00,
2013-03-25 16:34:00,41.3,3.3,30.35,SSW,209,0.0,0.0,20,0.00,,SKC,0.01,VWS V14.00,2013-03-25 22:34:00,
2013-03-25 16:39:00,41.5,3.4,30.35,SSW,200,2.0,6.0,20,0.00,,SKC,0.01,VWS V14.00,2013-03-25 22:39:00,
2013-03-25 16:44:00,41.2,2.1,30.34,SSW,211,2.0,6.0,19,0.00,,SKC,0.01,VWS V14.00,2013-03-25 22:44:00,
2013-03-25 16:50:00,40.4,1.4,30.34,SSE,168,2.0,6.0,19,0.00,,SKC,0.01,VWS V14.00,2013-03-25 22:50:00,
2013-03-25 16:55:00,40.0,1.1,30.34,SSW,198,0.0,6.0,19,0.00,,SKC,0.01,VWS V14.00,2013-03-25 22:55:00,
2013-03-25 17:00:00,40.3,1.3,30.34,SSE,154,5.0,8.0,19,0.00,,SKC,0.01,VWS V14.00,2013-03-25 23:00:00,
2013-03-25 17:07:00,40.6,2.7,30.34,NW,321,5.0,7.0,20,0.00,,SKC,0.01,VWS V14.00,2013-03-25 23:07:00,
2013-03-25 17:12:00,40.4,1.4,30.34,West,278,0.0,9.0,19,0.00,,SKC,0.01,VWS V14.00,2013-03-25 23:12:00,
2013-03-25 17:17:00,41.1,2.0,30.33,WNW,296,1.0,9.0,19,0.00,,SKC,0.01,VWS V14.00,2013-03-25 23:17:00,
2013-03-25 17:22:00,41.1,4.2,30.33,SW,220,3.0,9.0,21,0.00,,SKC,0.01,VWS V14.00,2013-03-25 23:22:00,
2013-03-25 17:27:00,41.3,2.2,30.33,SW,215,3.0,9.0,19,0.00,,SKC,0.01,VWS V14.00,2013-03-25 23:27:00,
2013-03-25 17:30:00,41.0,1.9,30.33,SW,217,2.0,9.0,19,0.00,,SKC,0.01,VWS V14.00,2013-03-25 23:30:00,
2013-03-25 17:32:00,41.0,1.9,30.33,SW,219,5.0,5.0,19,0.00,,SKC,0.01,VWS V14.00,2013-03-25 23:32:00,
2013-03-25 17:38:00,40.7,2.8,30.33,SSW,203,2.0,5.0,20,0.00,,SKC,0.01,VWS V14.00,2013-03-25 23:38:00,
2013-03-25 17:43:00,40.7,2.8,30.33,SSW,210,2.0,5.0,20,0.00,,SKC,0.01,VWS V14.00,2013-03-25 23:43:00,
2013-03-25 17:49:00,40.6,3.7,30.33,SSW,210,2.0,5.0,21,0.00,,SKC,0.01,VWS V14.00,2013-03-25 23:49:00,
2013-03-25 17:54:00,40.6,3.7,30.33,SE,145,0.0,5.0,21,0.00,,SKC,0.01,VWS V14.00,2013-03-25 23:54:00,
2013-03-25 17:59:00,40.7,3.8,30.33,SE,145,0.0,5.0,21,0.00,,SKC,0.01,VWS V14.00,2013-03-25 23:59:00,
2013-03-25 18:00:00,40.7,3.8,30.33,South,171,0.0,6.0,21,0.00,,SKC,0.01,VWS V14.00,2013-03-26 00:00:00,
2013-03-25 18:05:00,40.5,2.6,30.33,South,171,0.0,0.0,20,0.00,,SKC,0.01,VWS V14.00,2013-03-26 00:05:00,
2013-03-25 18:10:00,40.7,4.8,30.33,South,171,0.0,2.0,22,0.00,,SKC,0.01,VWS V14.00,2013-03-26 00:10:00,
2013-03-25 18:16:00,41.1,7.1,30.33,South,171,2.0,2.0,24,0.00,,SKC,0.01,VWS V14.00,2013-03-26 00:16:00,
2013-03-25 18:21:00,41.1,7.1,30.33,South,171,0.0,4.0,24,0.00,,SKC,0.01,VWS V14.00,2013-03-26 00:21:00,
2013-03-25 18:26:00,40.6,7.6,30.33,South,171,0.0,4.0,25,0.00,,SKC,0.01,VWS V14.00,2013-03-26 00:26:00,
2013-03-25 18:31:00,39.5,9.1,30.33,South,171,0.0,4.0,28,0.00,,SKC,0.01,VWS V14.00,2013-03-26 00:31:00,
2013-03-25 18:37:00,38.3,8.1,30.33,South,171,1.0,1.0,28,0.00,,SKC,0.01,VWS V14.00,2013-03-26 00:37:00,
2013-03-25 18:42:00,37.2,10.1,30.33,South,171,0.0,1.0,32,0.00,,SKC,0.01,VWS V14.00,2013-03-26 00:42:00,
2013-03-25 18:47:00,35.4,9.8,30.33,South,171,0.0,4.0,34,0.00,,SKC,0.01,VWS V14.00,2013-03-26 00:47:00,
2013-03-25 18:53:00,34.1,10.6,30.33,South,171,0.0,4.0,37,0.00,,SKC,0.01,VWS V14.00,2013-03-26 00:53:00,
2013-03-25 18:58:00,33.4,10.5,30.33,South,171,0.0,4.0,38,0.00,,SKC,0.01,VWS V14.00,2013-03-26 00:58:00,
2013-03-25 19:03:00,32.9,10.1,30.33,East,84,1.0,2.0,38,0.00,,SKC,0.01,VWS V14.00,2013-03-26 01:03:00,
2013-03-25 19:09:00,32.5,9.7,30.33,East,84,0.0,2.0,38,0.00,,SKC,0.01,VWS V14.00,2013-03-26 01:09:00,
2013-03-25 19:14:00,32.0,11.0,30.33,East,84,1.0,2.0,41,0.00,,SKC,0.01,VWS V14.00,2013-03-26 01:14:00,
2013-03-25 19:19:00,31.5,10.5,30.33,East,84,0.0,3.0,41,0.00,,SKC,0.01,VWS V14.00,2013-03-26 01:19:00,
2013-03-25 19:24:00,30.9,11.1,30.33,East,84,0.0,3.0,43,0.00,,SKC,0.01,VWS V14.00,2013-03-26 01:24:00,
2013-03-25 19:30:00,30.4,10.1,30.33,East,84,0.0,3.0,42,0.00,,SKC,0.01,VWS V14.00,2013-03-26 01:30:00,
2013-03-25 19:35:00,29.9,10.1,30.33,East,84,0.0,1.0,43,0.00,,SKC,0.01,VWS V14.00,2013-03-26 01:35:00,
2013-03-25 19:41:00,29.4,10.7,30.34,East,84,0.0,1.0,45,0.00,,SKC,0.01,VWS V14.00,2013-03-26 01:41:00,
2013-03-25 19:47:00,29.0,10.3,30.34,East,84,0.0,1.0,45,0.00,,SKC,0.01,VWS V14.00,2013-03-26 01:47:00,
2013-03-25 19:52:00,28.8,11.6,30.34,East,84,0.0,2.0,48,0.00,,SKC,0.01,VWS V14.00,2013-03-26 01:52:00,
2013-03-25 19:57:00,28.5,12.2,30.34,East,84,0.0,2.0,50,0.00,,SKC,0.01,VWS V14.00,2013-03-26 01:57:00,
2013-03-25 20:02:00,28.2,12.4,30.34,East,84,0.0,0.0,51,0.00,,SKC,0.01,VWS V14.00,2013-03-26 02:02:00,
2013-03-25 20:08:00,27.8,11.1,30.33,East,84,0.0,0.0,49,0.00,,SKC,0.01,VWS V14.00,2013-03-26 02:08:00,
2013-03-25 20:13:00,27.6,11.4,30.34,East,84,0.0,0.0,50,0.00,,SKC,0.01,VWS V14.00,2013-03-26 02:13:00,
2013-03-25 20:18:00,27.3,12.0,30.34,East,84,0.0,0.0,52,0.00,,SKC,0.01,VWS V14.00,2013-03-26 02:18:00,
2013-03-25 20:24:00,27.1,11.4,30.34,East,84,0.0,0.0,51,0.00,,SKC,0.01,VWS V14.00,2013-03-26 02:24:00,
2013-03-25 20:29:00,26.8,11.1,30.34,East,84,0.0,0.0,51,0.00,,SKC,0.01,VWS V14.00,2013-03-26 02:29:00,
2013-03-25 20:35:00,26.5,11.3,30.35,East,84,0.0,1.0,52,0.00,,SKC,0.01,VWS V14.00,2013-03-26 02:35:00,
2013-03-25 20:40:00,26.3,11.9,30.35,East,84,0.0,1.0,54,0.00,,SKC,0.01,VWS V14.00,2013-03-26 02:40:00,
2013-03-25 20:45:00,26.1,12.2,30.35,East,84,0.0,1.0,55,0.00,,SKC,0.01,VWS V14.00,2013-03-26 02:45:00,
2013-03-25 20:50:00,25.8,11.0,30.35,East,84,0.0,2.0,53,0.00,,SKC,0.01,VWS V14.00,2013-03-26 02:50:00,
2013-03-25 20:56:00,25.7,10.9,30.35,East,84,0.0,2.0,53,0.00,,SKC,0.01,VWS V14.00,2013-03-26 02:56:00,
2013-03-25 21:01:00,25.7,12.2,30.35,East,84,0.0,2.0,56,0.00,,SKC,0.01,VWS V14.00,2013-03-26 03:01:00,
2013-03-25 21:06:00,26.0,11.2,30.35,North,10,0.0,5.0,53,0.00,,SKC,0.01,VWS V14.00,2013-03-26 03:06:00,
2013-03-25 21:11:00,26.1,11.7,30.35,East,101,2.0,5.0,54,0.00,,SKC,0.01,VWS V14.00,2013-03-26 03:11:00,
2013-03-25 21:17:00,26.5,9.9,30.35,NE,34,4.0,5.0,49,0.00,,SKC,0.01,VWS V14.00,2013-03-26 03:17:00,
2013-03-25 21:22:00,27.8,8.7,30.35,NE,39,1.0,7.0,44,0.00,,SKC,0.01,VWS V14.00,2013-03-26 03:22:00,
2013-03-25 21:27:00,28.5,7.8,30.35,ESE,103,1.0,7.0,41,0.00,,SKC,0.01,VWS V14.00,2013-03-26 03:27:00,
2013-03-25 21:32:00,29.0,7.7,30.36,NE,36,0.0,3.0,40,0.00,,SKC,0.01,VWS V14.00,2013-03-26 03:32:00,
2013-03-25 21:38:00,29.4,7.5,30.36,NE,55,2.0,7.0,39,0.00,,SKC,0.01,VWS V14.00,2013-03-26 03:38:00,
2013-03-25 21:43:00,29.3,7.4,30.36,NNE,32,3.0,7.0,39,0.00,,SKC,0.01,VWS V14.00,2013-03-26 03:43:00,
2013-03-25 21:48:00,29.5,7.0,30.37,NNE,15,2.0,7.0,38,0.00,,SKC,0.01,VWS V14.00,2013-03-26 03:48:00,
2013-03-25 21:54:00,29.4,6.9,30.37,NE,43,2.0,7.0,38,0.00,,SKC,0.01,VWS V14.00,2013-03-26 03:54:00,
2013-03-25 21:59:00,29.3,6.9,30.37,ENE,65,2.0,8.0,38,0.00,,SKC,0.01,VWS V14.00,2013-03-26 03:59:00,
2013-03-25 22:00:00,29.3,6.3,30.37,ENE,57,4.0,8.0,37,0.00,,SKC,0.01,VWS V14.00,2013-03-26 04:00:00,
2013-03-25 22:01:00,29.3,7.4,30.37,NNW,340,1.0,8.0,39,0.00,,SKC,0.01,VWS V14.00,2013-03-26 04:01:00,
2013-03-25 22:02:00,29.3,7.4,30.37,NE,40,3.0,8.0,39,0.00,,SKC,0.01,VWS V14.00,2013-03-26 04:02:00,
2013-03-25 22:05:00,29.2,7.3,30.37,East,92,7.0,7.0,39,0.00,,SKC,0.01,VWS V14.00,2013-03-26 04:05:00,
2013-03-25 22:10:00,29.0,6.6,30.38,NE,40,3.0,7.0,38,0.00,,SKC,0.01,VWS V14.00,2013-03-26 04:10:00,
2013-03-25 22:15:00,28.8,7.0,30.38,NE,48,2.0,7.0,39,0.00,,SKC,0.01,VWS V14.00,2013-03-26 04:15:00,
2013-03-25 22:21:00,28.6,6.2,30.38,ENE,78,2.0,7.0,38,0.00,,SKC,0.01,VWS V14.00,2013-03-26 04:21:00,
2013-03-25 22:27:00,28.5,6.1,30.38,NE,49,0.0,7.0,38,0.00,,SKC,0.01,VWS V14.00,2013-03-26 04:27:00,
2013-03-25 22:32:00,28.4,6.6,30.38,NNE,24,4.0,7.0,39,0.00,,SKC,0.01,VWS V14.00,2013-03-26 04:32:00,
2013-03-25 22:37:00,28.3,6.5,30.38,NE,36,3.0,7.0,39,0.00,,SKC,0.01,VWS V14.00,2013-03-26 04:37:00,
2013-03-25 22:42:00,28.2,6.4,30.38,NE,49,4.0,7.0,39,0.00,,SKC,0.01,VWS V14.00,2013-03-26 04:42:00,
2013-03-25 22:48:00,28.0,6.3,30.38,NNE,16,6.0,7.0,39,0.00,,SKC,0.01,VWS V14.00,2013-03-26 04:48:00,
2013-03-25 22:53:00,27.9,5.6,30.38,North,5,0.0,7.0,38,0.00,,SKC,0.01,VWS V14.00,2013-03-26 04:53:00,
2013-03-25 22:58:00,27.7,6.0,30.38,NNE,26,3.0,7.0,39,0.00,,SKC,0.01,VWS V14.00,2013-03-26 04:58:00,
2013-03-25 23:04:00,27.6,6.4,30.38,ENE,59,0.0,3.0,40,0.00,,SKC,0.01,VWS V14.00,2013-03-26 05:04:00,
2013-03-25 23:09:00,27.5,6.4,30.38,NE,34,0.0,7.0,40,0.00,,SKC,0.01,VWS V14.00,2013-03-26 05:09:00,
2013-03-25 23:14:00,27.4,6.3,30.37,NNE,19,4.0,7.0,40,0.00,,SKC,0.01,VWS V14.00,2013-03-26 05:14:00,
2013-03-25 23:19:00,27.3,5.6,30.38,ENE,57,6.0,8.0,39,0.00,,SKC,0.01,VWS V14.00,2013-03-26 05:19:00,
2013-03-25 23:24:00,27.4,5.7,30.38,NNE,23,3.0,8.0,39,0.00,,SKC,0.01,VWS V14.00,2013-03-26 05:24:00,
2013-03-25 23:29:00,27.2,5.5,30.38,NE,36,3.0,8.0,39,0.00,,SKC,0.01,VWS V14.00,2013-03-26 05:29:00,
2013-03-25 23:35:00,27.1,7.1,30.38,NE,56,2.0,5.0,42,0.00,,SKC,0.01,VWS V14.00,2013-03-26 05:35:00,
2013-03-25 23:40:00,26.7,7.7,30.37,NE,38,2.0,6.0,44,0.00,,SKC,0.01,VWS V14.00,2013-03-26 05:40:00,
2013-03-25 23:45:00,26.4,6.9,30.37,NNE,32,3.0,6.0,43,0.00,,SKC,0.01,VWS V14.00,2013-03-26 05:45:00,
2013-03-25 23:50:00,26.2,6.8,30.37,NE,50,1.0,6.0,43,0.00,,SKC,0.01,VWS V14.00,2013-03-26 05:50:00,
2013-03-25 23:56:00,25.8,8.4,30.36,NE,50,0.0,6.0,47,0.00,,SKC,0.01,VWS V14.00,2013-03-26 05:56:00,